This is the latest recevied weather packets stored in our database for station/object DO7ZT-13. If no packets are shown the sender has not sent any weather packets the latest 10 day(s).
| Time | Temp. | Humidity | Pressure | Rain* | Wind** | Luminosity | Snow |
|---|---|---|---|---|---|---|---|
| 1777835121 | 20° C | 36% | 1012 hPa | 0 mm | 1.79 m/s, 161° | - | - |
| 1777834808 | 18.89° C | 34% | 1012 hPa | 0 mm | 1.79 m/s, 135° | - | - |
| 1777834521 | 18.89° C | 37% | 1012 hPa | 0 mm | 1.34 m/s, 138° | - | - |
| 1777834208 | 18.89° C | 38% | 1012 hPa | 0 mm | 0.89 m/s, 134° | - | - |
| 1777833921 | 17.78° C | 41% | 1011.9 hPa | 0 mm | 0.89 m/s, 120° | - | - |
| 1777833608 | 17.78° C | 42% | 1011.9 hPa | 0 mm | 0.89 m/s, 126° | - | - |
| 1777833321 | 17.78° C | 45% | 1011.9 hPa | 0 mm | 1.34 m/s, 129° | - | - |
| 1777833008 | 17.78° C | 42% | 1011.8 hPa | 0 mm | 0.89 m/s, 135° | - | - |
| 1777832721 | 17.78° C | 44% | 1011.8 hPa | 0 mm | 0.89 m/s, 132° | - | - |
| 1777832408 | 17.78° C | 47% | 1011.8 hPa | 0 mm | 0.89 m/s, 132° | - | - |
| 1777832120 | 17.78° C | 45% | 1011.8 hPa | 0 mm | 0.45 m/s, 120° | - | - |
| 1777831807 | 17.78° C | 47% | 1011.8 hPa | 0 mm | 0.89 m/s, 126° | - | - |
| 1777831520 | 17.78° C | 46% | 1011.8 hPa | 0 mm | 0.89 m/s, 126° | - | - |
| 1777831208 | 18.89° C | 44% | 1011.8 hPa | 0 mm | 0.89 m/s, 126° | - | - |
| 1777830920 | 20° C | 40% | 1011.8 hPa | 0 mm | 0.45 m/s, 132° | - | - |
| 1777830608 | 20° C | 37% | 1011.8 hPa | 0 mm | 0.45 m/s, 132° | - | - |
| 1777830321 | 20° C | 37% | 1011.7 hPa | 0 mm | 0.89 m/s, 129° | - | - |
| 1777830008 | 21.11° C | 36% | 1011.7 hPa | 0 mm | 0.89 m/s, 128° | - | - |
| 1777829733 | 21.11° C | 36% | 1011.7 hPa | 0 mm | 0.89 m/s, 120° | - | - |
| 1777829420 | 21.11° C | 34% | 1011.8 hPa | 0 mm | 0.89 m/s, 126° | - | - |
| 1777829107 | 21.11° C | 35% | 1011.8 hPa | 0 mm | 0.89 m/s, 120° | - | - |
| 1777828820 | 22.22° C | 33% | 1011.8 hPa | 0 mm | 0.89 m/s, 126° | - | - |
| 1777828507 | 22.22° C | 32% | 1011.9 hPa | 0 mm | 0.89 m/s, 134° | - | - |
| 1777828219 | 22.22° C | 32% | 1011.9 hPa | 0 mm | 0.45 m/s, 135° | - | - |
| 1777827907 | 22.78° C | 29% | 1011.9 hPa | 0 mm | 1.34 m/s, 150° | - | - |
* Rain latest hour (hover to see other rain measurements)
** Current wind speed in m/s (hover to see current wind gust speed)